Wind_Speed
93 94 93 90 87 87 86 82 80 81 80 76 72 70 68 69 71 71 71 71 68 64 59 58 56 53 51 51 53 55 53 49 45 45 46 43 41 40 39 39 39 38 36 37 41 43 42 42 42 42 44 43 40 40 41 42 43 44 45 45 45 45 46 47 49 51 52 52 52 53 55 55 53 51 52 53 54 55 54 53 52 52 52 54 57 57
95 93 93 91 89 89 89 87 84 82 81 77 73 70 71 72 71 69 70 69 67 64 61 59 55 52 53 55 56 55 53 49 47 47 46 44 42 41 39 40 39 40 41 41 41 43 44 42 43 45 45 43 42 43 43 43 44 45 46 46 47 47 48 50 52 53 53 53 54 55 56 56 54 53 54 55 56 56 56 56 56 54 54 55 57 58
97 95 94 94 93 91 91 91 88 85 82 78 73 72 74 75 72 70 70 69 66 64 61 58 54 53 54 51 47 46 48 49 48 46 45 44 44 43 41 42 42 42 44 45 44 45 46 44 45 47 47 44 43 43 43 44 45 47 47 48 48 49 50 53 53 53 54 55 56 57 58 57 55 55 56 57 57 58 58 58 58 58 57 58 59 59
97 96 96 96 96 95 92 91 89 88 85 80 77 76 77 77 75 72 72 70 67 64 60 57 56 56 54 47 41 42 46 47 45 44 44 46 48 47 45 44 45 45 45 46 47 48 48 48 48 48 48 46 43 42 44 46 47 48 49 49 50 51 52 54 54 54 56 57 58 58 58 58 57 57 58 58 59 59 60 61 61 60 59 59 60 61
98 99 100 99 97 96 94 91 89 88 86 83 82 81 79 78 78 76 74 72 68 65 61 59 60 59 57 52 48 47 48 47 46 46 45 45 47 48 47 46 46 47 47 47 49 50 51 51 50 49 48 48 46 44 45 47 48 49 50 51 51 52 53 54 54 56 58 59 59 58 58 58 58 59 59 60 61 61 63 63 63 63 62 61 61 62
99 100 101 101 99 97 94 92 90 88 86 85 85 84 81 79 78 78 77 74 69 65 63 62 63 62 61 59 56 53 52 52 51 50 50 48 48 48 48 48 48 50 51 50 50 52 53 53 51 49 50 50 49 47 46 47 48 50 52 52 52 52 54 55 57 59 59 59 59 59 59 59 59 60 61 62 63 64 65 66 66 66 64 64 64 65
99 99 100 100 99 97 94 92 90 89 87 87 88 87 84 81 80 80 79 78 72 67 65 65 63 65 65 61 59 57 57 58 57 55 56 56 55 55 55 54 54 55 56 54 53 53 54 53 52 51 52 52 51 51 50 49 50 52 53 53 53 54 56 58 59 60 60 60 60 60 60 61 61 61 63 64 65 66 66 67 68 67 67 66 66 67
97 98 98 98 97 96 95 93 90 88 88 88 89 89 87 84 84 84 82 81 76 70 69 68 65 65 64 59 57 58 60 63 63 61 61 60 60 61 61 62 62 61 59 57 54 53 54 55 55 55 55 54 54 55 54 53 54 55 56 55 56 57 59 60 61 62 62 61 60 60 61 61 62 63 65 67 67 68 68 68 69 68 68 67 67 67
97 97 97 98 98 97 95 94 92 90 88 87 88 88 87 86 87 87 85 82 78 73 72 71 70 67 64 61 58 58 61 63 64 65 64 63 64 64 63 63 63 62 60 58 55 54 55 57 58 58 58 57 57 58 58 58 58 59 59 59 59 59 61 62 63 63 64 63 62 62 61 63 64 65 67 69 69 69 70 70 70 70 70 69 69 69
100 98 98 99 100 99 97 95 94 92 90 89 88 88 88 88 89 90 87 84 80 77 74 73 73 70 67 65 61 59 60 61 62 63 63 64 64 64 64 63 63 62 61 61 58 57 58 59 59 59 60 60 60 60 61 62 62 62 62 62 61 62 62 64 65 65 66 66 65 64 64 66 67 68 69 70 70 71 71 72 72 71 71 71 71 71
104 102 102 102 101 100 99 97 95 94 92 91 90 90 90 90 90 91 88 86 83 79 76 74 73 72 69 67 66 64 63 63 63 62 61 63 63 63 64 64 64 63 63 63 62 61 60 59 59 59 60 62 62 63 64 64 65 65 65 64 64 64 64 65 67 67 67 68 67 67 68 69 69 70 71 72 72 72 72 73 73 73 73 72 73 73
107 106 105 103 102 100 100 100 99 97 95 93 92 92 92 91 91 91 89 87 84 79 76 75 75 74 71 69 70 70 70 71 68 66 65 66 64 64 65 66 66 66 65 65 64 63 61 60 59 61 62 64 65 65 66 66 67 67 67 66 66 66 67 67 69 69 70 70 70 70 71 71 72 72 73 74 74 74 74 75 75 75 74 74 74 75
108 107 107 105 103 101 101 101 101 101 98 95 93 93 93 92 91 91 89 87 83 79 77 76 76 74 70 69 72 74 75 76 73 71 72 71 70 70 70 69 69 68 67 67 66 64 62 61 61 63 65 66 67 68 68 68 68 69 69 68 68 69 69 70 71 72 72 73 73 73 73 74 74 74 75 76 76 76 76 77 77 77 77 76 76 77
109 108 107 106 104 103 102 102 102 101 100 97 94 93 92 92 91 90 89 87 85 81 79 78 78 74 69 70 74 76 78 79 77 75 76 75 74 73 72 71 70 70 69 68 66 64 62 63 63 65 66 67 69 69 69 69 69 70 70 70 71 71 72 73 74 74 75 75 76 76 76 76 76 77 78 79 78 78 79 79 80 79 79 78 78 79
109 109 108 107 106 104 103 102 101 101 101 100 98 96 95 93 91 90 89 88 85 82 80 81 80 77 73 72 75 77 79 80 78 75 75 75 74 73 71 70 70 69 68 66 64 64 64 65 66 67 67 68 69 69 69 69 70 70 71 72 73 73 74 75 76 77 77 78 78 78 78 78 79 79 80 81 80 80 81 82 82 82 81 80 80 81
108 108 108 108 107 106 106 105 104 103 102 102 101 100 99 97 93 91 90 88 87 85 83 83 81 78 76 76 77 78 79 79 78 77 75 75 75 74 73 72 71 70 69 67 66 67 68 69 69 69 68 68 68 68 69 70 71 72 73 74 74 75 76 77 79 79 79 80 80 80 81 81 82 82 83 83 82 83 84 84 84 83 83 83 83 83
108 108 108 108 107 107 108 108 107 106 105 103 102 101 100 99 97 95 94 92 91 89 87 85 82 79 79 79 79 79 80 80 81 80 79 78 78 78 77 76 74 73 72 71 71 72 72 72 72 71 69 69 69 70 71 71 72 73 74 75 77 78 79 80 81 82 82 82 82 83 84 84 85 85 85 84 84 85 86 85 85 85 85 85 85 85
107 108 108 108 108 107 108 108 109 108 107 106 105 103 102 103 102 100 98 97 95 92 90 87 85 83 82 80 80 81 82 83 84 84 84 82 81 81 80 79 77 76 75 75 74 75 75 75 74 73 72 72 72 73 74 75 75 76 77 78 79 80 80 82 83 84 85 85 85 85 86 87 87 87 87 86 86 87 87 86 87 88 87 87 87 87
106 107 109 109 109 109 109 109 109 108 107 107 106 105 105 106 104 102 100 98 96 93 91 88 86 86 85 84 83 84 85 87 87 87 86 86 85 83 82 80 79 78 78 77 77 78 78 77 76 75 75 75 75 76 77 78 79 81 82 82 82 82 83 83 84 85 86 87 87 87 88 89 89 89 89 88 89 89 88 88 90 90 90 90 90 90
108 107 107 109 109 110 111 110 109 107 107 107 106 106 106 105 104 102 101 99 96 94 92 89 87 86 86 87 88 88 89 90 90 90 89 89 87 85 83 82 81 80 80 79 80 80 79 79 78 78 77 77 78 79 81 82 83 84 85 86 86 86 86 86 86 87 88 88 89 89 90 91 91 91 91 91 91 91 90 91 92 92 92 92 92 92
112 110 108 109 109 110 110 109 108 107 107 108 107 106 105 104 104 103 101 100 98 95 93 90 88 87 87 89 90 90 91 92 92 92 91 89 88 86 85 84 83 83 83 82 82 82 81 80 79 79 79 80 81 83 85 86 86 86 87 88 89 89 89 89 89 90 90 90 91 92 93 93 94 94 94 94 94 92 92 94 95 95 95 95 95 95
114 114 112 110 110 109 109 108 108 108 109 109 108 107 106 106 105 104 103 101 99 96 94 92 90 88 88 90 91 91 91 92 92 92 91 89 88 88 87 85 85 85 86 85 84 83 82 81 80 80 81 83 85 86 87 88 88 88 89 90 91 91 91 91 91 92 92 93 93 94 95 95 96 96 96 96 95 95 95 97 97 97 97 96 97 97
115 116 116 114 113 111 110 109 109 109 109 109 108 108 107 107 107 105 103 102 100 99 97 95 93 90 89 90 92 92 91 91 92 91 91 90 90 90 89 89 88 88 87 87 86 85 84 83 82 83 85 87 88 89 89 89 90 91 91 92 93 93 93 93 94 94 94 95 95 96 96 97 97 98 98 97 97 97 98 99 99 99 99 99 99 99
116 117 118 117 117 116 114 113 111 111 110 109 108 106 106 106 106 105 104 103 103 101 99 98 95 91 88 89 91 92 91 91 92 92 93 92 92 92 92 92 91 90 89 87 86 86 85 85 86 87 89 90 91 91 92 92 93 93 94 95 95 95 95 95 96 96 96 97 97 97 98 98 99 99 99 99 99 100 101 102 101 101 101 100 100 100
113 117 118 119 119 119 118 116 114 111 109 107 106 105 105 104 105 106 105 104 104 101 99 99 94 89 87 88 90 92 93 93 93 94 94 94 94 94 94 94 93 91 89 88 88 87 88 88 89 90 92 93 93 93 94 95 95 96 97 97 98 98 98 98 98 98 98 99 99 99 100 100 100 100 100 100 101 103 104 104 103 103 102 102 102 102
112 115 118 119 119 119 118 115 112 110 107 106 105 104 104 104 105 105 105 105 103 100 99 98 93 88 88 89 90 93 95 95 96 96 96 96 96 96 95 94 93 92 91 90 90 90 91 92 93 93 94 94 95 95 96 97 98 99 100 100 100 100 101 101 100 100 100 100 100 101 101 101 101 101 102 103 105 106 106 106 105 105 105 105 105 105
112 113 115 117 118 117 116 115 113 112 111 109 107 105 104 104 104 105 106 105 102 99 99 97 92 90 90 91 92 94 96 97 98 99 98 97 96 95 94 93 93 93 93 93 93 93 94 95 95 95 96 96 97 98 99 100 101 102 102 103 103 103 103 103 102 102 101 101 102 102 102 102 103 103 105 106 107 108 108 107 107 107 107 107 108 108
114 112 112 114 114 114 115 116 117 117 117 114 111 109 106 105 105 106 106 105 102 101 99 96 93 91 89 91 94 95 96 97 99 99 98 96 95 94 93 94 95 95 95 95 95 96 96 97 97 97 97 98 100 101 102 103 103 104 104 104 104 104 104 104 104 103 103 102 103 103 104 105 105 106 108 109 110 109 109 109 108 109 109 110 110 110
116 111 110 112 113 113 114 116 118 119 118 116 114 112 111 110 109 108 107 104 103 103 99 95 94 92 91 93 94 94 95 96 96 97 96 95 95 94 94 95 96 96 96 97 97 98 99 99 99 100 101 103 104 105 105 105 105 105 105 105 105 105 105 105 105 105 105 105 106 106 107 108 108 110 111 112 112 111 111 111 110 110 111 111 111 111
120 114 110 110 112 114 114 115 117 119 120 119 118 116 114 114 112 110 107 104 103 103 98 94 95 94 92 93 93 92 93 94 95 96 96 95 95 94 95 96 97 98 98 99 100 101 101 102 102 104 105 106 107 107 107 107 107 107 107 107 107 107 107 107 107 108 108 108 109 109 110 111 112 113 113 113 113 113 112 112 112 112 112 112 111 111
124 119 114 111 110 114 116 116 117 119 120 121 121 120 119 118 116 112 108 105 103 101 96 93 94 93 90 91 92 92 93 94 95 98 98 98 97 98 98 99 100 101 102 103 103 104 104 105 106 107 108 108 109 109 109 110 110 110 110 110 110 110 110 110 110 110 111 111 111 112 113 114 114 115 114 114 114 114 114 113 113 113 112 112 113 114
127 124 121 116 112 111 113 115 117 118 120 122 124 124 122 121 118 115 112 108 107 104 100 98 96 92 90 93 95 95 96 97 99 100 101 101 102 102 103 104 104 106 107 107 107 107 108 109 109 110 111 111 112 113 113 113 114 113 113 113 113 112 112 112 112 113 113 113 114 115 115 116 116 115 115 115 115 115 114 114 113 113 113 114 116 118
129 128 126 122 118 112 110 112 115 118 121 122 121 120 120 120 120 120 118 116 115 114 111 107 102 97 97 101 102 100 100 101 101 103 104 105 105 106 107 109 110 111 112 112 112 112 112 113 113 114 114 115 116 116 116 116 116 116 115 115 114 114 114 114 114 115 115 115 116 116 116 116 116 116 116 115 115 115 114 113 113 114 115 117 119 120
127 130 129 127 124 119 114 112 114 117 119 116 113 113 116 119 121 122 122 121 121 120 119 115 111 108 109 109 108 107 107 107 107 108 109 110 110 111 112 113 114 115 116 116 116 116 116 116 116 116 117 117 117 118 117 117 117 116 116 115 115 115 115 115 116 116 116 116 116 116 116 116 116 116 116 116 115 114 114 114 115 117 119 120 121 120
121 125 128 129 127 124 121 118 117 117 113 108 106 108 113 117 119 121 121 121 121 122 122 120 117 116 115 115 114 114 115 115 115 115 116 116 116 117 117 118 118 119 119 119 118 118 119 118 118 118 118 118 118 118 118 117 117 117 116 116 116 116 116 116 116 116 116 116 117 117 117 117 116 116 116 115 115 115 116 118 119 121 121 121 121 121
116 119 123 127 127 126 124 122 120 115 109 105 104 105 108 110 112 114 115 115 116 119 120 120 118 117 118 118 118 118 119 120 121 121 121 121 121 122 122 121 121 121 120 120 119 119 119 119 119 118 118 118 118 118 118 118 117 117 117 117 117 117 117 117 117 117 117 117 117 117 117 117 116 116 116 116 117 118 120 121 122 122 122 122 122 122
115 116 119 123 126 126 125 124 122 118 112 107 103 101 101 103 105 109 111 111 113 116 118 118 117 116 116 118 118 119 119 121 122 121 121 121 122 123 122 121 121 121 120 119 119 118 118 118 118 118 118 118 118 118 118 118 117 117 117 117 117 117 117 117 117 117 117 117 117 117 117 116 116 117 118 119 121 122 123 123 123 123 123 123 123 124
112 113 115 118 122 123 125 125 125 122 115 107 101 100 101 103 105 108 110 110 110 111 113 112 112 112 113 115 117 117 118 119 118 117 117 119 121 122 122 121 120 119 119 118 118 117 118 118 118 118 118 118 117 117 117 116 117 117 117 117 117 117 117 117 117 117 117 116 116 116 116 117 119 121 122 124 124 124 124 124 124 124 125 125 126 127
110 111 112 115 117 120 123 124 125 122 114 105 102 103 105 107 109 112 114 110 104 104 106 107 107 108 110 113 116 117 117 117 115 114 116 119 121 121 121 120 120 119 118 118 118 118 118 118 118 118 117 117 117 116 116 116 116 117 117 117 117 116 116 116 116 116 116 117 118 119 121 123 124 125 126 126 126 125 125 126 126 126 127 127 128 128
107 109 110 112 112 113 116 119 121 119 111 104 102 105 107 109 111 115 116 109 102 102 105 105 107 108 111 113 116 116 116 115 113 113 116 118 119 120 120 120 119 119 119 118 118 117 117 117 117 117 116 116 116 116 116 116 116 116 116 116 116 117 117 118 119 119 121 122 123 125 126 126 126 126 126 126 126 126 127 127 127 128 128 129 129 130
107 108 109 109 109 108 109 112 114 113 108 102 100 102 106 110 113 114 112 106 104 105 106 107 110 112 113 115 116 116 116 115 115 115 115 116 116 117 118 118 118 117 117 116 116 115 115 115 115 115 115 115 115 115 115 115 116 116 117 118 119 120 121 122 123 124 125 125 126 126 126 126 126 126 126 126 127 127 127 128 129 129 130 130 130 130
105 106 107 108 107 106 106 107 109 107 103 99 97 98 103 108 111 110 108 107 108 108 108 109 112 114 115 116 117 118 117 117 117 116 116 116 115 116 116 116 117 116 116 115 114 114 114 114 114 114 114 114 115 115 116 117 117 119 120 121 122 122 123 123 124 125 125 125 125 125 125 126 126 126 126 127 127 128 129 130 130 130 131 131 130 131
103 105 106 106 105 105 105 106 105 101 95 94 95 97 100 104 107 108 109 111 113 113 112 112 114 116 118 118 119 119 118 117 117 117 116 116 115 115 115 115 115 116 116 115 115 114 114 114 114 114 115 115 116 117 118 119 120 121 122 122 122 123 123 123 124 124 124 124 124 125 125 125 126 127 127 128 129 130 130 131 131 131 131 131 131 132
103 104 105 104 104 105 105 104 100 94 90 92 96 99 102 105 108 110 111 113 114 115 115 115 115 116 118 118 118 118 118 117 117 116 116 115 115 114 114 114 114 115 115 116 116 116 116 116 117 118 119 120 120 121 121 122 122 122 122 121 122 122 122 123 123 123 124 124 124 125 126 127 128 128 129 130 130 130 130 131 131 131 132 132 133 133
102 102 103 103 103 104 105 103 99 95 92 93 96 100 104 107 108 109 110 111 113 113 114 115 115 115 116 116 117 118 118 118 118 117 117 116 116 115 115 115 115 115 116 117 118 119 119 120 120 121 121 121 121 121 121 121 121 121 121 121 121 122 122 123 123 124 124 125 126 127 128 128 129 130 130 130 130 130 131 131 132 132 133 134 134 134
101 102 103 104 105 106 105 103 99 96 94 94 94 97 101 105 107 108 109 110 111 112 113 113 113 113 114 115 116 116 117 118 119 119 119 118 118 118 117 117 118 118 119 119 120 120 121 120 120 120 119 119 119 119 119 120 120 120 121 121 122 123 123 124 124 125 126 126 127 128 129 129 129 130 130 130 131 131 131 132 132 133 133 134 135 135
100 101 103 104 105 105 104 102 100 97 96 95 96 97 99 101 104 107 109 110 111 112 112 112 112 112 113 114 114 115 116 117 118 118 118 118 118 117 117 118 118 118 118 119 119 119 119 119 119 118 118 118 118 119 119 120 121 122 122 123 124 124 125 125 126 126 127 127 128 128 129 129 129 129 130 130 131 132 132 132 133 134 134 135 136 137
100 101 103 104 104 103 102 101 101 100 99 98 98 98 98 99 102 104 107 109 110 111 111 111 111 111 112 112 113 114 114 115 115 116 116 117 117 117 117 117 117 117 118 118 118 118 118 118 119 119 119 120 120 121 122 123 124 124 125 125 125 126 126 126 127 127 127 127 128 128 128 128 129 129 130 131 132 132 133 134 135 136 137 138 139 141
100 101 102 102 102 101 101 100 100 101 101 100 100 100 101 101 102 103 105 107 109 110 110 110 109 109 110 110 111 111 112 113 114 114 115 115 116 116 117 117 117 117 117 117 117 118 118 119 120 120 121 122 122 123 124 124 124 124 124 124 125 125 125 125 126 126 126 127 127 128 128 129 130 130 131 132 133 133 134 135 137 138 140 142 144 146
98 99 100 101 101 101 100 99 100 101 102 103 102 102 103 103 104 105 105 106 108 109 109 109 108 108 108 109 109 110 111 112 112 113 113 114 115 116 117 117 117 117 117 117 117 118 118 119 120 120 121 121 122 122 122 122 122 122 122 122 123 123 124 124 125 126 127 127 128 129 129 130 130 131 132 133 134 135 136 138 140 142 144 146 149 151
96 97 98 99 100 100 99 100 101 102 104 104 105 105 105 105 105 105 105 106 108 108 108 108 107 107 108 108 109 109 110 111 111 111 112 113 113 114 115 115 116 116 116 117 117 117 117 118 118 118 118 119 119 119 119 120 120 121 121 122 122 123 124 125 126 127 127 128 129 129 130 130 131 132 133 135 136 138 140 142 145 147 150 152 154 156
Wind_Direction
215 216 217 219 219 218 219 220 221 222 223 225 227 228 228 230 231 232 233 234 234 235 237 239 241 244 250 254 256 257 254 253 258 263 266 266 265 266 266 263 260 259 266 275 277 278 280 282 285 287 291 294 296 296 296 297 298 300 301 300 301 302 304 308 310 312 313 315 316 317 319 321 320 319 321 323 324 325 326 324 323 325 328 329 329 329
216 216 217 218 220 220 219 220 221 223 224 225 227 228 229 230 231 232 233 234 233 233 234 237 239 243 248 253 256 256 252 253 261 264 265 266 262 260 262 262 261 260 263 268 274 277 279 280 282 284 288 292 294 294 293 293 296 298 298 298 298 299 301 305 307 308 311 313 314 315 317 318 318 318 320 321 322 323 323 322 321 321 324 325 326 326
218 217 217 218 220 221 221 221 221 223 225 226 226 227 229 231 232 233 234 234 234 234 234 236 238 241 247 251 253 253 252 255 261 262 263 265 263 260 263 264 261 262 265 266 270 275 277 278 280 282 285 289 294 295 294 294 295 296 296 296 296 297 299 301 304 306 309 311 312 313 315 316 316 317 319 320 320 321 320 320 320 319 320 322 323 323
220 218 218 218 220 221 222 222 222 224 225 225 225 226 228 230 230 232 235 235 235 235 236 236 236 239 242 244 248 252 251 253 254 256 262 265 263 262 262 262 261 261 266 267 268 273 276 277 279 280 282 285 290 294 296 297 296 296 296 295 294 295 296 299 302 306 308 310 311 311 312 314 314 316 318 319 319 319 319 319 319 318 317 319 320 321
221 220 220 220 220 221 222 222 223 224 224 223 224 226 227 229 230 231 234 235 236 237 238 238 236 236 237 239 246 249 248 248 247 249 256 260 261 261 260 260 260 261 266 269 268 270 273 276 278 279 278 280 284 289 294 297 296 296 297 296 295 295 296 299 303 305 308 308 309 309 310 311 312 314 316 316 317 317 318 318 317 317 315 315 317 318
222 222 221 221 222 223 223 224 224 225 225 224 225 226 227 229 231 232 233 234 236 237 239 241 240 240 239 240 243 246 248 248 245 246 251 254 258 261 259 259 261 262 267 270 269 269 272 275 277 277 277 277 280 284 288 293 295 295 297 297 297 297 298 301 303 305 306 307 307 307 308 309 310 312 314 314 314 315 316 316 316 315 314 314 314 316
222 222 223 223 223 224 224 225 226 226 226 226 226 227 227 228 231 232 233 234 234 235 237 240 242 242 242 241 242 246 250 250 249 249 251 253 256 259 260 262 263 264 268 270 269 269 272 273 274 274 276 277 278 281 283 287 291 293 295 296 296 297 299 301 302 303 304 304 305 305 306 307 308 309 311 313 313 314 314 314 314 314 313 312 313 314
220 222 223 224 224 224 225 226 227 227 228 228 228 229 229 229 231 232 233 235 235 234 234 237 239 240 240 241 245 250 253 254 254 253 253 255 258 259 260 262 264 266 268 269 268 269 270 272 273 273 275 276 277 279 281 283 286 289 291 293 294 296 297 298 299 300 301 302 302 303 303 304 305 307 309 311 311 312 312 313 312 312 311 310 311 312
218 220 222 224 225 225 225 226 227 228 228 229 229 231 231 231 232 233 234 235 236 235 234 235 236 238 239 242 246 252 255 256 256 256 256 257 259 260 260 261 263 266 268 269 268 268 269 272 274 274 275 275 277 279 281 282 284 286 288 290 291 293 295 296 296 298 298 299 300 300 300 301 302 304 307 309 310 310 311 311 311 310 310 309 309 309
217 219 221 223 225 225 226 226 228 228 228 228 229 231 232 232 234 235 235 236 237 237 236 237 237 238 240 242 244 248 252 253 254 255 256 257 258 259 260 261 263 266 268 269 268 268 269 272 274 275 276 277 278 280 282 282 284 286 287 288 289 291 293 294 294 295 296 297 298 298 298 299 300 302 305 307 308 309 309 309 309 309 309 308 307 308
217 219 221 223 225 226 227 227 228 228 229 229 229 230 231 233 234 236 237 238 239 239 239 239 240 240 241 243 243 244 247 250 251 253 255 255 256 257 259 261 263 266 268 267 268 268 270 272 273 274 277 279 280 282 282 283 284 286 287 288 289 290 292 292 293 293 294 295 296 296 297 298 299 301 303 305 306 307 307 307 308 308 307 307 306 306
218 220 221 223 225 226 227 229 229 230 230 229 230 231 232 233 235 238 239 240 241 241 242 243 243 243 243 245 246 245 246 248 249 251 253 254 255 257 259 262 264 267 267 266 267 269 270 271 272 274 277 279 281 282 283 284 284 285 287 288 288 289 290 291 292 292 293 294 294 295 296 297 298 300 302 304 305 305 306 306 307 307 306 306 305 305
219 220 221 223 225 226 228 229 230 231 231 231 231 232 234 235 237 239 241 243 244 244 243 244 246 246 246 246 247 247 247 248 249 251 253 255 257 259 261 263 265 266 266 267 269 269 270 270 272 274 277 279 281 282 283 283 284 285 287 287 287 288 289 290 291 291 291 292 293 294 295 297 298 299 301 303 303 304 305 306 306 306 306 305 304 305
219 220 222 223 225 226 228 229 231 232 232 232 232 233 235 237 239 241 243 244 245 245 245 246 247 248 247 245 246 247 248 249 249 250 253 257 259 260 262 264 265 266 267 269 269 268 268 270 273 276 278 279 281 282 282 282 283 284 286 287 287 287 288 289 290 290 290 291 292 294 295 296 297 298 300 301 302 303 304 305 306 306 305 304 304 304
219 221 222 223 225 227 228 230 231 232 232 232 233 234 235 237 238 240 242 243 244 245 245 246 249 250 249 247 247 248 249 250 252 253 254 257 260 262 263 265 266 267 268 268 268 267 268 271 274 277 277 279 280 281 281 282 282 284 285 285 286 286 287 287 288 289 289 290 291 293 295 296 297 298 299 300 300 302 304 304 305 305 305 304 303 303
220 221 222 223 225 226 228 230 231 232 232 233 234 235 236 237 238 239 240 242 243 244 244 246 248 249 249 248 248 250 252 254 256 257 258 259 261 264 265 266 266 266 267 268 267 267 269 272 275 276 277 277 278 278 279 280 281 282 283 284 285 286 286 287 288 288 289 290 291 293 294 296 296 297 297 298 299 301 302 303 304 304 304 303 303 302
221 221 222 223 224 226 228 230 232 233 234 235 236 237 238 239 240 240 241 242 243 244 245 247 247 247 247 248 250 252 254 256 257 259 260 260 262 264 265 266 266 266 267 267 267 268 270 273 275 276 276 276 276 276 277 277 277 279 280 282 284 285 286 286 287 288 289 290 291 292 294 295 295 295 296 296 297 300 301 302 303 303 303 302 302 301
221 221 223 224 224 226 228 229 231 233 235 236 237 238 239 240 241 241 242 243 244 246 247 247 247 247 247 249 251 252 254 256 257 258 260 261 262 264 264 265 265 266 267 267 268 269 272 274 276 276 276 275 276 276 276 275 275 277 279 281 283 285 286 286 286 287 288 289 290 292 293 293 294 294 294 295 296 299 300 301 302 302 301 301 301 300
221 221 222 224 225 226 227 228 230 232 233 235 237 238 239 240 241 242 243 244 246 247 248 248 248 248 248 249 250 251 253 255 256 258 260 261 263 263 264 264 264 265 266 267 268 270 272 275 276 276 276 276 276 276 276 275 276 277 278 280 282 285 287 287 287 287 287 288 289 290 292 293 293 293 293 294 296 298 298 299 301 301 301 301 300 300
221 222 223 224 225 226 227 228 229 231 233 235 236 237 238 240 242 243 243 244 245 245 245 246 246 247 248 248 249 250 252 254 256 258 260 261 262 263 263 263 263 264 265 266 268 270 273 274 276 276 276 276 276 276 276 276 277 278 279 281 283 285 287 288 289 289 288 289 290 291 292 292 293 293 293 294 296 297 297 299 300 300 300 300 300 300
222 223 223 224 225 226 227 229 230 231 232 234 235 236 238 239 241 242 243 243 244 244 244 244 245 245 247 248 249 250 252 254 256 258 260 261 262 263 263 263 264 265 265 266 268 270 272 274 275 275 275 274 275 275 275 276 278 279 280 282 284 286 288 289 290 290 290 290 290 291 292 292 293 293 293 294 296 296 297 299 300 300 300 300 299 299
223 224 224 225 226 227 228 229 230 231 232 233 234 236 237 238 239 240 241 242 242 243 243 244 244 245 246 248 249 250 252 253 255 257 259 261 261 262 262 263 263 265 266 267 268 270 272 273 273 273 273 273 273 273 274 275 277 278 280 282 283 285 287 289 290 290 290 290 291 291 292 292 292 292 293 294 295 296 297 298 299 299 299 298 298 298
222 224 225 225 226 227 228 229 229 230 231 233 234 235 237 238 239 240 241 242 243 243 244 244 244 245 246 248 250 251 252 253 255 257 258 259 260 261 262 263 263 264 266 267 269 271 272 273 273 272 271 271 271 271 272 274 276 278 279 281 283 284 286 288 289 289 290 290 290 290 291 291 291 292 292 293 294 295 296 297 298 298 298 297 297 297
221 223 224 225 226 227 228 229 229 230 231 233 234 235 237 238 240 241 242 242 243 244 245 245 246 246 246 247 249 251 252 253 255 256 257 258 259 260 262 263 264 265 266 267 269 270 272 272 272 271 270 270 270 271 272 275 277 278 279 280 282 284 286 287 288 288 289 289 289 289 289 290 290 291 291 292 293 295 296 296 297 297 297 297 296 296
221 222 223 225 226 227 228 229 230 231 233 234 235 236 237 239 240 241 242 242 243 244 246 246 247 247 246 246 248 251 252 253 254 255 256 257 259 260 262 263 265 266 266 267 268 269 270 270 269 269 269 269 270 271 274 276 277 278 279 281 282 284 285 286 287 287 288 288 288 288 289 289 289 290 291 292 293 294 295 296 296 296 296 296 296 295
220 222 223 224 226 227 229 230 231 232 233 234 235 236 238 239 240 241 242 242 243 244 245 247 247 246 245 245 246 248 251 252 253 254 255 256 258 260 262 263 265 266 266 267 267 267 267 267 267 267 267 268 270 272 274 276 278 279 280 281 282 283 285 286 287 287 287 288 288 288 288 288 289 290 291 292 293 294 295 295 295 295 295 295 295 295
221 222 223 224 226 227 228 229 230 231 231 232 233 234 235 237 238 239 240 241 242 243 244 245 245 244 244 245 246 247 249 251 253 254 255 256 258 260 261 263 264 264 265 265 265 265 265 265 265 266 267 269 271 273 274 276 278 279 280 281 282 283 285 285 286 287 287 287 287 287 288 288 289 290 291 292 293 294 294 294 295 295 295 295 295 295
222 222 223 225 226 227 228 229 230 231 231 231 232 233 234 234 236 237 238 240 241 241 242 243 243 243 243 244 245 246 248 250 252 254 255 256 258 259 260 261 261 262 262 262 263 263 263 264 265 267 268 270 272 273 275 277 278 279 280 280 282 283 284 285 286 286 286 286 286 287 287 288 289 289 290 291 292 293 293 293 293 293 293 294 294 294
223 223 224 225 226 226 228 229 230 231 232 232 233 233 234 235 236 237 239 240 241 241 242 243 243 244 243 243 244 246 248 250 252 254 255 256 257 258 258 258 258 259 260 260 261 262 263 264 266 267 269 270 272 274 275 276 277 278 279 280 281 282 283 284 284 285 285 285 286 286 287 287 288 289 290 291 291 292 292 292 292 292 292 293 293 293
224 224 224 225 226 227 228 229 230 232 232 233 233 234 235 236 237 238 240 241 243 244 245 244 245 246 246 245 245 246 248 250 251 252 253 254 254 254 255 255 256 257 258 259 260 262 264 265 267 268 270 271 273 274 275 276 277 278 279 280 281 282 283 283 284 284 285 285 285 286 286 287 288 289 290 290 291 291 291 291 291 291 292 292 292 293
226 225 225 225 226 227 228 229 230 232 233 234 234 234 235 236 237 239 240 242 244 245 245 244 244 246 246 246 245 245 245 246 248 249 249 250 251 252 253 254 255 256 258 259 261 263 265 267 268 269 271 272 273 275 276 277 278 279 280 280 281 282 282 283 283 284 284 285 285 286 286 287 288 289 289 289 290 290 290 290 290 290 291 291 292 293
227 226 226 227 226 227 228 229 230 232 233 234 235 235 236 237 239 240 241 242 243 244 243 242 242 243 244 244 243 243 242 243 244 245 247 248 250 251 253 255 256 258 259 261 263 264 266 267 268 270 271 273 274 275 276 277 278 279 280 281 281 282 282 283 283 284 284 285 285 286 286 287 288 288 288 289 289 289 289 290 290 290 291 291 292 293
227 227 227 228 227 227 227 229 230 232 233 234 235 236 238 239 240 241 242 242 243 244 244 243 243 242 242 243 244 244 244 244 244 246 247 249 250 252 254 256 258 260 261 263 264 265 266 268 269 271 272 273 274 275 276 277 278 279 279 280 280 281 282 282 283 283 284 285 285 286 286 287 287 288 288 288 289 289 289 289 290 290 291 292 293 293
229 228 228 229 229 228 227 229 230 231 232 233 235 237 238 239 240 240 241 242 243 244 245 245 244 244 244 245 246 247 248 248 248 248 250 251 253 255 256 258 259 261 262 264 265 267 268 269 270 271 272 273 274 275 276 277 278 278 279 279 280 280 281 282 282 283 283 284 284 285 286 286 287 287 287 288 288 288 288 289 289 290 291 292 292 292
230 230 231 231 232 231 230 230 231 232 232 233 234 236 237 239 240 241 241 242 244 245 246 246 247 247 247 248 249 249 250 251 251 252 253 254 255 257 258 259 260 262 263 265 266 267 268 269 270 271 272 273 274 275 276 276 277 278 278 279 279 280 281 281 282 282 283 283 284 284 285 285 286 286 286 287 287 287 288 289 289 290 291 291 291 292
230 231 232 233 233 234 233 233 234 234 234 233 234 236 238 239 241 242 243 243 245 246 246 247 247 248 249 249 250 250 251 252 254 255 256 257 258 259 259 260 261 262 263 264 265 266 267 269 270 271 272 273 274 275 275 276 277 277 278 278 279 280 280 281 281 282 282 283 283 284 284 284 285 285 285 286 286 287 288 288 289 289 290 290 291 291
231 232 233 234 234 235 235 235 236 236 235 235 236 237 239 241 242 243 244 244 244 246 246 247 248 248 250 251 251 252 253 254 255 256 258 259 259 260 260 260 261 262 263 264 265 266 267 268 270 271 272 273 274 274 275 276 276 277 277 278 278 279 280 280 281 281 281 282 282 283 283 283 284 284 285 286 286 287 287 288 288 289 289 289 290 290
232 233 235 235 235 236 236 236 236 236 236 237 238 239 240 241 242 243 243 243 244 246 248 249 249 250 250 251 252 252 253 254 255 257 258 259 259 260 260 261 262 262 264 265 266 267 267 268 269 270 271 272 273 273 274 274 275 276 277 277 278 278 279 279 280 280 281 281 281 282 282 283 283 284 285 285 286 286 287 287 287 288 288 289 289 290
234 234 235 237 237 237 238 238 238 238 237 238 240 241 241 242 243 244 244 243 244 247 249 249 250 250 251 251 252 252 253 253 255 256 256 257 258 260 261 262 263 264 265 265 266 266 267 268 269 270 271 271 272 272 273 273 274 275 276 276 277 277 278 279 279 279 280 280 281 281 282 282 283 284 284 285 285 286 286 287 287 288 288 289 289 290
235 235 236 237 238 239 240 240 239 239 238 239 241 242 243 244 244 245 246 245 245 247 248 248 248 249 250 250 251 252 253 253 254 254 255 256 258 260 262 263 264 265 265 266 266 267 268 268 269 269 270 270 271 271 272 273 273 274 275 275 276 276 277 278 278 278 279 279 280 281 281 282 282 283 284 284 285 285 286 287 287 288 288 289 289 289
236 236 237 238 239 240 241 242 241 240 239 239 241 242 243 244 246 247 248 248 246 246 247 247 247 248 249 250 251 252 252 253 253 253 255 256 258 260 262 263 264 265 266 267 267 268 268 269 269 269 269 270 270 271 271 272 273 273 274 275 275 276 276 277 277 278 278 279 280 280 281 282 282 283 284 284 285 286 286 287 287 288 288 289 289 289
236 237 238 238 239 240 242 243 242 241 241 241 241 241 243 245 246 248 249 248 246 246 246 247 247 248 248 249 251 251 252 253 254 254 255 256 257 259 261 262 263 265 266 266 267 268 268 269 269 269 270 270 271 271 272 272 273 273 274 275 275 276 276 277 277 278 278 279 280 280 281 282 283 283 284 285 285 286 286 287 287 288 288 289 289 289
237 238 239 239 240 241 242 243 243 243 243 244 243 242 242 244 245 246 246 246 246 246 246 246 247 248 249 250 251 252 253 254 255 255 256 257 257 258 260 261 262 263 264 265 266 267 267 268 268 269 270 270 271 272 272 273 273 274 274 275 275 276 276 277 278 278 279 280 280 281 282 283 283 284 285 285 286 286 287 287 288 288 288 289 289 289
237 238 239 240 240 242 242 243 244 244 243 243 243 242 241 242 243 243 244 245 247 247 247 248 249 250 251 252 253 254 255 255 256 256 256 257 257 258 259 260 261 262 263 264 265 266 266 267 268 269 270 270 271 272 273 273 274 274 275 275 276 276 277 278 279 279 280 281 281 282 283 284 284 285 285 286 286 287 287 288 288 288 289 289 289 290
237 238 239 240 241 242 242 242 242 243 242 243 244 244 243 243 243 244 245 247 248 249 249 250 250 251 252 254 255 255 256 256 257 257 257 257 258 258 259 259 260 261 262 263 264 265 266 267 268 269 270 271 271 272 273 273 274 275 275 276 277 277 278 279 279 280 281 282 282 283 284 284 285 285 286 286 287 287 287 288 288 289 289 289 290 290
237 238 239 239 240 241 242 242 242 243 243 244 244 245 245 245 245 245 246 247 248 249 249 250 251 252 252 253 254 255 256 257 257 258 258 258 259 259 260 260 261 261 262 263 264 265 266 267 268 269 270 271 271 272 273 273 274 275 276 277 277 278 279 279 280 281 281 282 283 283 284 284 285 285 286 286 287 287 288 288 288 289 289 289 290 290
237 238 239 240 240 241 242 243 243 244 244 244 244 245 246 247 247 246 247 247 248 249 249 250 251 251 252 253 254 255 256 257 258 259 260 261 261 261 261 262 262 262 263 264 265 265 266 267 268 269 270 270 271 272 273 274 275 275 276 277 278 278 279 280 280 281 282 282 283 284 284 285 285 286 286 287 287 287 288 288 288 288 289 289 289 290
238 239 239 240 241 242 242 243 244 244 245 245 246 246 246 248 248 249 248 248 249 249 250 251 251 252 253 254 254 255 256 257 258 259 260 261 262 263 263 263 263 264 264 265 265 266 267 268 268 269 270 270 271 272 273 274 275 275 276 277 278 278 279 280 281 281 282 283 283 284 284 285 285 286 286 286 287 287 287 288 288 288 289 289 290 290
239 239 240 241 242 242 243 243 244 245 245 246 246 247 247 247 248 248 249 250 250 250 250 251 252 253 254 254 255 256 257 257 258 259 260 261 262 263 263 264 265 265 266 266 267 267 268 268 269 269 270 271 272 273 273 274 275 276 276 277 278 279 280 280 281 282 282 283 283 283 284 284 285 285 285 286 286 287 287 288 288 289 289 290 290 291
240 241 242 242 243 243 243 244 244 244 245 245 245 246 247 247 248 248 249 250 251 251 252 252 253 253 254 255 256 256 257 258 258 259 260 261 261 262 263 264 265 266 267 267 268 268 269 269 270 271 271 272 273 274 274 275 276 276 277 278 279 279 280 280 281 281 282 282 282 283 283 284 284 285 285 286 286 287 288 288 289 289 290 290 291 291
240 241 242 243 244 244 244 244 244 244 245 245 245 246 246 247 248 249 250 251 252 252 253 253 254 254 255 255 256 256 257 258 259 259 260 261 262 263 264 264 265 266 267 268 268 269 269 270 271 272 272 273 274 274 275 276 276 277 277 278 278 279 280 280 280 281 281 282 282 283 283 284 284 285 285 286 287 287 288 288 289 289 290 291 291 291
Height
10741 10747 10754 10762 10768 10772 10776 10781 10784 10786 10790 10795 10799 10805 10810 10810 10810 10813 10815 10817 10821 10827 10832 10834 10836 10840 10844 10847 10850 10851 10853 10854 10855 10857 10859 10861 10863 10864 10864 10865 10866 10867 10867 10865 10863 10863 10863 10863 10863 10864 10865 10865 10864 10863 10862 10861 10860 10858 10857 10856 10856 10854 10853 10852 10852 10851 10851 10850 10849 10848 10847 10846 10844 10843 10842 10841 10839 10837 10835 10833 10832 10831 10830 10827 10824 10822
10737 10744 10753 10759 10761 10762 10767 10772 10776 10780 10785 10790 10794 10800 10802 10801 10805 10810 10810 10813 10818 10823 10827 10829 10833 10837 10840 10843 10845 10848 10849 10850 10851 10853 10855 10857 10859 10860 10860 10861 10863 10863 10862 10861 10860 10858 10859 10860 10860 10860 10861 10861 10861 10860 10858 10857 10857 10855 10854 10853 10852 10851 10849 10849 10848 10847 10847 10846 10845 10844 10843 10842 10841 10839 10839 10838 10836 10834 10832 10830 10828 10826 10826 10824 10822 10819
10735 10743 10748 10751 10752 10755 10760 10765 10770 10775 10779 10786 10790 10793 10794 10796 10803 10806 10805 10809 10815 10818 10822 10827 10830 10832 10835 10839 10841 10843 10845 10845 10847 10850 10852 10854 10854 10855 10857 10858 10859 10859 10858 10858 10856 10854 10854 10856 10857 10856 10856 10857 10857 10856 10855 10854 10853 10852 10850 10850 10849 10847 10846 10845 10844 10843 10843 10842 10841 10840 10839 10838 10837 10835 10834 10833 10832 10830 10828 10826 10824 10822 10820 10818 10817 10815
10733 10739 10741 10742 10745 10748 10753 10759 10765 10769 10774 10781 10783 10783 10787 10791 10798 10800 10799 10804 10810 10813 10819 10823 10824 10826 10830 10835 10837 10838 10839 10841 10844 10846 10848 10850 10850 10851 10853 10853 10854 10855 10854 10854 10853 10851 10850 10851 10853 10853 10852 10852 10852 10852 10851 10850 10849 10848 10847 10846 10845 10843 10842 10841 10840 10839 10838 10837 10836 10835 10834 10833 10831 10830 10829 10828 10827 10826 10824 10822 10820 10818 10815 10813 10812 10810
10726 10730 10731 10735 10738 10742 10747 10753 10758 10761 10768 10774 10774 10775 10782 10787 10792 10794 10794 10798 10803 10808 10814 10817 10818 10821 10826 10830 10832 10832 10834 10837 10840 10842 10844 10845 10845 10847 10848 10848 10849 10850 10850 10850 10850 10848 10847 10847 10848 10848 10848 10848 10847 10847 10846 10846 10845 10844 10843 10842 10841 10839 10838 10837 10836 10835 10835 10833 10832 10831 10830 10828 10827 10826 10825 10823 10821 10820 10819 10817 10816 10814 10812 10809 10807 10805
10717 10720 10723 10728 10732 10737 10742 10747 10751 10755 10762 10767 10767 10771 10778 10783 10787 10789 10789 10792 10797 10804 10809 10809 10813 10818 10820 10824 10827 10828 10831 10832 10834 10838 10839 10840 10841 10843 10843 10843 10845 10845 10845 10846 10846 10845 10843 10843 10844 10843 10843 10843 10843 10843 10842 10842 10841 10840 10839 10838 10837 10835 10834 10833 10832 10831 10830 10829 10827 10826 10825 10824 10823 10821 10820 10819 10817 10815 10813 10811 10809 10807 10806 10803 10801 10799
10710 10714 10719 10724 10728 10732 10737 10740 10744 10750 10756 10759 10762 10766 10772 10779 10781 10782 10783 10785 10791 10799 10803 10804 10810 10813 10814 10820 10824 10826 10827 10826 10829 10833 10834 10835 10837 10838 10837 10838 10839 10840 10841 10842 10842 10841 10839 10838 10839 10838 10838 10838 10838 10838 10838 10838 10837 10836 10835 10834 10833 10832 10830 10829 10828 10826 10826 10824 10823 10821 10819 10818 10817 10816 10815 10813 10812 10811 10809 10807 10804 10802 10800 10797 10795 10793
10706 10710 10714 10719 10722 10725 10729 10734 10738 10744 10749 10753 10757 10760 10767 10774 10773 10773 10777 10779 10786 10794 10797 10799 10805 10807 10810 10817 10822 10822 10821 10821 10824 10827 10828 10831 10832 10832 10832 10833 10833 10834 10836 10837 10837 10837 10835 10833 10832 10833 10832 10833 10833 10833 10833 10833 10832 10831 10830 10830 10829 10828 10827 10825 10824 10822 10821 10820 10819 10817 10816 10814 10812 10811 10810 10808 10807 10805 10804 10803 10800 10798 10796 10793 10791 10789
10701 10705 10709 10713 10714 10718 10724 10728 10733 10737 10742 10747 10752 10754 10760 10767 10765 10766 10770 10774 10780 10788 10791 10794 10799 10804 10809 10813 10816 10817 10817 10817 10819 10820 10823 10826 10826 10826 10827 10828 10828 10829 10830 10832 10833 10832 10831 10828 10827 10827 10827 10827 10827 10827 10827 10827 10827 10826 10825 10825 10824 10823 10822 10821 10819 10818 10815 10814 10814 10813 10812 10810 10808 10807 10805 10803 10802 10800 10798 10797 10795 10792 10790 10788 10786 10784
10694 10699 10702 10703 10705 10712 10718 10722 10726 10731 10737 10742 10746 10748 10752 10757 10757 10758 10764 10769 10775 10782 10788 10791 10795 10801 10806 10807 10809 10812 10812 10812 10812 10814 10817 10819 10819 10820 10821 10822 10823 10824 10825 10826 10827 10827 10826 10824 10822 10822 10821 10821 10821 10821 10821 10820 10820 10820 10820 10819 10819 10818 10817 10815 10814 10813 10810 10808 10808 10807 10806 10805 10803 10802 10800 10799 10797 10795 10793 10791 10789 10787 10784 10782 10780 10778
10688 10691 10693 10695 10700 10708 10713 10716 10721 10725 10730 10734 10738 10740 10743 10748 10750 10752 10759 10764 10768 10777 10786 10788 10790 10797 10802 10802 10803 10806 10806 10805 10805 10809 10811 10811 10812 10814 10814 10816 10818 10819 10820 10820 10820 10821 10820 10820 10819 10817 10815 10814 10815 10815 10815 10814 10814 10814 10814 10813 10812 10811 10810 10808 10807 10806 10804 10802 10802 10800 10799 10798 10797 10796 10795 10793 10792 10790 10788 10785 10783 10781 10779 10776 10774 10771
10682 10684 10688 10693 10698 10705 10708 10711 10715 10717 10722 10728 10732 10734 10736 10741 10745 10747 10753 10758 10764 10776 10783 10783 10784 10790 10798 10800 10797 10799 10799 10797 10801 10805 10803 10803 10806 10807 10808 10810 10812 10813 10814 10814 10815 10815 10815 10815 10814 10813 10811 10809 10808 10808 10808 10808 10808 10808 10807 10807 10806 10805 10803 10802 10800 10799 10797 10796 10796 10794 10793 10792 10791 10789 10788 10787 10785 10783 10781 10779 10777 10775 10773 10770 10767 10765
10675 10679 10685 10690 10695 10700 10702 10705 10708 10711 10717 10723 10726 10728 10730 10736 10741 10744 10750 10755 10763 10772 10776 10776 10777 10783 10795 10797 10791 10791 10791 10790 10797 10800 10796 10797 10799 10800 10802 10805 10806 10807 10808 10808 10809 10809 10809 10809 10809 10808 10806 10804 10803 10802 10801 10801 10801 10801 10800 10800 10799 10798 10796 10795 10793 10792 10790 10789 10788 10787 10786 10785 10783 10782 10780 10779 10777 10776 10774 10772 10770 10768 10765 10763 10761 10758
10668 10673 10680 10685 10691 10695 10697 10699 10702 10708 10714 10719 10723 10725 10726 10731 10737 10740 10746 10751 10757 10765 10768 10769 10771 10778 10789 10790 10784 10784 10783 10783 10790 10794 10792 10791 10792 10794 10796 10798 10800 10800 10801 10802 10803 10804 10804 10803 10803 10802 10801 10799 10797 10796 10796 10796 10795 10794 10793 10792 10791 10790 10789 10787 10785 10784 10783 10782 10781 10780 10778 10777 10776 10774 10773 10771 10769 10767 10766 10764 10762 10760 10758 10756 10753 10751
10662 10668 10675 10681 10686 10691 10692 10695 10699 10703 10707 10711 10715 10717 10718 10723 10730 10735 10739 10744 10750 10756 10759 10760 10764 10773 10780 10781 10778 10776 10775 10776 10781 10787 10788 10786 10785 10787 10789 10792 10793 10793 10794 10796 10797 10797 10797 10797 10797 10797 10796 10795 10793 10791 10790 10789 10789 10788 10787 10785 10784 10782 10781 10779 10778 10777 10776 10775 10774 10772 10771 10770 10768 10767 10765 10763 10761 10760 10758 10756 10754 10752 10750 10748 10746 10744
10657 10662 10667 10672 10678 10682 10685 10688 10692 10694 10697 10702 10707 10709 10712 10718 10725 10729 10732 10737 10742 10746 10750 10753 10759 10767 10771 10771 10770 10769 10770 10772 10774 10778 10782 10781 10780 10781 10782 10784 10785 10786 10787 10789 10790 10790 10790 10791 10791 10791 10791 10790 10789 10788 10787 10785 10783 10781 10779 10778 10776 10775 10774 10772 10771 10770 10769 10768 10767 10765 10764 10762 10761 10759 10757 10755 10754 10752 10751 10749 10747 10745 10743 10741 10738 10736
10652 10657 10660 10663 10669 10672 10676 10680 10683 10686 10691 10697 10700 10705 10711 10714 10717 10721 10724 10729 10733 10736 10742 10749 10754 10759 10761 10762 10765 10766 10766 10767 10767 10769 10772 10775 10776 10776 10776 10777 10778 10780 10781 10781 10782 10783 10783 10783 10783 10784 10784 10784 10784 10783 10782 10781 10778 10776 10774 10772 10770 10768 10767 10766 10765 10764 10763 10761 10760 10758 10756 10755 10753 10751 10750 10748 10747 10745 10743 10742 10740 10738 10736 10733 10731 10728
10642 10648 10652 10655 10660 10664 10667 10670 10673 10678 10684 10687 10692 10700 10704 10702 10704 10711 10715 10719 10724 10730 10738 10745 10749 10752 10754 10758 10762 10761 10760 10759 10759 10760 10762 10767 10770 10770 10770 10770 10772 10773 10773 10774 10775 10775 10775 10775 10775 10776 10776 10777 10777 10777 10776 10774 10772 10770 10768 10766 10764 10763 10762 10761 10760 10758 10757 10755 10753 10752 10749 10748 10746 10744 10743 10741 10739 10738 10736 10734 10732 10730 10728 10725 10722 10720
10632 10637 10641 10644 10650 10653 10655 10658 10663 10670 10675 10679 10685 10691 10691 10690 10695 10704 10708 10713 10721 10726 10732 10739 10744 10746 10749 10753 10755 10754 10752 10751 10751 10753 10756 10758 10760 10762 10763 10765 10766 10766 10766 10767 10767 10767 10767 10767 10767 10768 10768 10769 10769 10768 10767 10765 10763 10761 10760 10758 10758 10757 10756 10755 10754 10752 10750 10748 10746 10744 10742 10740 10738 10736 10735 10733 10732 10730 10728 10726 10724 10721 10719 10716 10713 10710
10624 10628 10632 10636 10640 10642 10644 10649 10657 10664 10669 10672 10676 10679 10681 10685 10690 10695 10700 10706 10713 10717 10724 10732 10736 10740 10744 10745 10745 10747 10746 10744 10744 10747 10748 10748 10751 10754 10756 10757 10759 10759 10760 10761 10761 10760 10760 10760 10760 10760 10760 10760 10759 10758 10757 10754 10753 10751 10750 10749 10749 10748 10748 10747 10746 10744 10742 10740 10738 10736 10734 10732 10729 10728 10726 10724 10723 10721 10719 10716 10714 10712 10709 10706 10703 10700
10614 10617 10624 10628 10629 10632 10637 10645 10654 10659 10661 10663 10667 10671 10675 10680 10683 10686 10691 10697 10702 10709 10716 10722 10728 10734 10737 10735 10736 10740 10740 10738 10738 10739 10739 10741 10744 10745 10747 10749 10751 10752 10752 10753 10754 10754 10754 10754 10754 10754 10754 10753 10750 10749 10747 10744 10743 10742 10741 10740 10739 10739 10739 10738 10736 10735 10733 10731 10728 10726 10724 10722 10720 10718 10716 10715 10713 10711 10709 10706 10704 10702 10699 10697 10694 10691
10606 10609 10616 10620 10621 10627 10633 10639 10644 10646 10649 10654 10658 10662 10667 10670 10671 10675 10680 10686 10693 10701 10707 10712 10719 10726 10729 10728 10728 10732 10733 10732 10732 10733 10733 10735 10736 10736 10737 10741 10743 10744 10744 10745 10745 10746 10747 10747 10747 10747 10746 10744 10742 10740 10738 10736 10735 10734 10733 10732 10732 10732 10731 10729 10728 10726 10723 10721 10719 10717 10715 10713 10711 10709 10707 10705 10703 10701 10699 10697 10695 10693 10690 10687 10685 10682
10594 10598 10605 10610 10613 10618 10624 10628 10632 10635 10641 10645 10649 10654 10658 10660 10663 10668 10675 10681 10686 10691 10697 10702 10708 10717 10723 10723 10721 10724 10726 10726 10727 10727 10726 10727 10727 10727 10728 10731 10733 10735 10736 10737 10738 10738 10738 10739 10739 10738 10736 10734 10732 10731 10729 10728 10728 10727 10726 10725 10725 10724 10723 10721 10720 10718 10715 10713 10711 10709 10707 10705 10703 10700 10698 10696 10694 10693 10690 10688 10686 10683 10681 10678 10675 10672
10582 10586 10593 10599 10603 10607 10612 10617 10621 10625 10631 10635 10642 10649 10652 10655 10660 10664 10669 10673 10675 10681 10689 10691 10699 10712 10719 10719 10716 10716 10718 10719 10719 10719 10717 10718 10719 10719 10719 10721 10723 10726 10728 10730 10731 10730 10730 10730 10729 10727 10725 10723 10722 10721 10720 10720 10719 10719 10718 10717 10717 10716 10714 10713 10711 10709 10707 10705 10703 10701 10698 10696 10694 10692 10690 10688 10686 10684 10681 10679 10677 10674 10671 10668 10664 10662
10573 10576 10583 10588 10592 10597 10601 10608 10615 10622 10630 10636 10642 10646 10647 10651 10654 10654 10659 10663 10665 10675 10681 10681 10694 10709 10712 10712 10712 10709 10708 10709 10709 10709 10709 10709 10710 10711 10712 10713 10714 10717 10720 10721 10722 10722 10721 10720 10718 10716 10715 10713 10712 10711 10711 10711 10711 10710 10709 10709 10708 10707 10705 10704 10702 10700 10698 10696 10694 10691 10689 10687 10685 10683 10681 10679 10676 10674 10671 10669 10666 10663 10661 10657 10654 10651
10560 10565 10573 10578 10584 10592 10600 10610 10620 10626 10629 10631 10634 10637 10640 10643 10644 10645 10650 10651 10658 10669 10671 10673 10689 10701 10701 10702 10704 10700 10698 10697 10697 10698 10700 10700 10702 10704 10705 10707 10708 10709 10710 10711 10711 10711 10710 10709 10707 10706 10705 10704 10703 10703 10703 10702 10702 10701 10700 10699 10698 10697 10695 10693 10692 10690 10688 10686 10684 10681 10679 10677 10675 10674 10671 10668 10665 10663 10660 10657 10655 10652 10649 10646 10643 10639
10552 10559 10567 10572 10580 10591 10599 10606 10611 10609 10608 10612 10618 10623 10627 10630 10632 10634 10633 10637 10651 10660 10659 10665 10680 10688 10691 10694 10694 10692 10690 10689 10686 10686 10689 10692 10695 10698 10700 10701 10701 10700 10700 10700 10699 10699 10698 10697 10696 10696 10696 10695 10695 10694 10694 10694 10693 10692 10691 10689 10688 10687 10685 10683 10681 10680 10679 10677 10674 10671 10669 10667 10666 10664 10661 10658 10655 10652 10650 10647 10644 10641 10637 10634 10631 10627
10546 10556 10565 10570 10579 10587 10590 10593 10593 10590 10593 10602 10609 10611 10614 10617 10618 10617 10618 10630 10643 10644 10648 10661 10669 10675 10685 10685 10682 10682 10682 10680 10677 10677 10681 10685 10688 10691 10692 10692 10691 10690 10689 10689 10688 10687 10686 10686 10686 10687 10687 10686 10686 10686 10685 10685 10684 10682 10681 10679 10678 10677 10675 10673 10671 10670 10668 10666 10664 10662 10660 10658 10656 10654 10651 10649 10646 10643 10640 10637 10634 10631 10627 10624 10620 10616
10542 10553 10561 10565 10571 10576 10578 10580 10581 10582 10589 10597 10600 10603 10605 10606 10606 10608 10614 10626 10631 10631 10645 10658 10658 10665 10675 10672 10670 10675 10674 10673 10673 10672 10674 10677 10679 10681 10682 10680 10679 10679 10678 10677 10676 10675 10674 10676 10677 10677 10678 10678 10677 10676 10675 10674 10673 10672 10671 10670 10669 10667 10665 10663 10662 10660 10658 10657 10655 10653 10651 10649 10646 10644 10641 10638 10636 10633 10630 10627 10624 10621 10617 10614 10610 10606
10534 10546 10553 10554 10560 10565 10566 10569 10573 10574 10580 10586 10590 10594 10597 10596 10599 10604 10612 10621 10624 10628 10646 10654 10650 10657 10665 10661 10664 10670 10669 10669 10669 10665 10665 10666 10667 10668 10667 10666 10667 10667 10666 10665 10664 10664 10666 10667 10668 10668 10667 10667 10666 10664 10664 10663 10663 10662 10661 10660 10659 10657 10655 10653 10652 10650 10648 10647 10645 10643 10641 10639 10636 10633 10631 10628 10625 10622 10619 10616 10613 10610 10607 10603 10600 10596
10523 10534 10539 10542 10548 10551 10554 10561 10564 10564 10569 10575 10578 10582 10585 10587 10592 10600 10611 10621 10623 10628 10643 10645 10641 10651 10658 10654 10655 10659 10659 10660 10657 10651 10650 10651 10652 10654 10654 10655 10656 10655 10655 10655 10655 10657 10659 10658 10658 10656 10655 10655 10654 10653 10652 10651 10651 10651 10650 10649 10648 10646 10645 10643 10641 10639 10638 10636 10634 10632 10630 10628 10625 10623 10620 10617 10614 10612 10609 10606 10602 10599 10596 10592 10589 10585
10509 10518 10524 10528 10533 10539 10547 10551 10553 10555 10557 10559 10564 10571 10579 10585 10593 10602 10611 10616 10615 10618 10626 10627 10632 10648 10650 10638 10635 10641 10644 10643 10640 10637 10637 10638 10640 10643 10644 10645 10645 10645 10645 10646 10648 10650 10649 10648 10646 10646 10645 10644 10643 10642 10641 10640 10640 10639 10639 10638 10636 10635 10633 10631 10629 10628 10626 10624 10622 10620 10618 10616 10614 10611 10608 10606 10603 10600 10597 10594 10590 10587 10584 10580 10577 10573
10496 10504 10511 10513 10518 10529 10536 10537 10541 10542 10537 10543 10559 10572 10579 10586 10592 10596 10599 10601 10602 10604 10610 10616 10630 10641 10632 10617 10618 10626 10629 10630 10630 10628 10627 10628 10632 10635 10636 10636 10636 10635 10635 10636 10638 10640 10639 10638 10637 10636 10636 10634 10633 10631 10630 10629 10629 10629 10628 10627 10625 10623 10622 10620 10618 10616 10614 10612 10610 10608 10605 10603 10601 10598 10596 10593 10591 10588 10585 10581 10578 10575 10572 10568 10565 10561
10491 10498 10504 10504 10508 10518 10523 10525 10526 10520 10524 10547 10567 10570 10572 10578 10580 10579 10583 10589 10592 10593 10599 10608 10619 10622 10613 10608 10613 10617 10617 10619 10619 10617 10617 10620 10624 10626 10626 10626 10625 10624 10625 10627 10629 10629 10628 10628 10628 10627 10626 10624 10622 10621 10620 10619 10619 10618 10617 10616 10614 10612 10610 10608 10607 10605 10603 10601 10599 10596 10594 10591 10589 10586 10583 10581 10578 10576 10573 10570 10566 10563 10560 10557 10553 10549
10487 10493 10497 10500 10503 10509 10515 10516 10509 10510 10533 10558 10561 10556 10561 10566 10565 10565 10573 10582 10585 10586 10592 10599 10607 10608 10605 10605 10606 10605 10605 10605 10603 10604 10607 10611 10615 10615 10614 10615 10615 10615 10617 10619 10620 10619 10617 10617 10618 10617 10616 10614 10612 10611 10610 10608 10608 10607 10606 10604 10602 10601 10599 10597 10596 10594 10592 10590 10588 10585 10583 10580 10578 10575 10572 10570 10567 10564 10562 10558 10555 10552 10548 10544 10541 10537
10479 10482 10486 10490 10493 10499 10507 10509 10507 10520 10542 10550 10547 10552 10559 10559 10559 10562 10570 10579 10581 10580 10582 10586 10594 10597 10593 10592 10593 10592 10593 10593 10591 10593 10598 10602 10605 10603 10602 10604 10605 10605 10607 10609 10610 10610 10609 10608 10607 10607 10606 10604 10602 10601 10599 10598 10597 10595 10594 10592 10590 10589 10587 10586 10584 10582 10581 10578 10576 10574 10571 10569 10566 10563 10561 10558 10556 10553 10550 10547 10543 10540 10536 10532 10528 10524
10472 10473 10475 10477 10482 10490 10496 10500 10507 10517 10529 10539 10549 10559 10559 10555 10556 10555 10558 10567 10568 10564 10566 10574 10582 10586 10582 10580 10581 10582 10584 10584 10583 10587 10592 10592 10589 10587 10588 10592 10594 10593 10596 10598 10600 10602 10601 10599 10598 10596 10595 10594 10592 10590 10589 10587 10585 10583 10582 10580 10578 10577 10575 10574 10572 10570 10569 10567 10564 10562 10559 10557 10554 10551 10549 10546 10543 10541 10538 10534 10531 10527 10523 10520 10515 10511
10463 10466 10467 10467 10474 10481 10483 10488 10495 10502 10522 10547 10557 10555 10550 10544 10543 10539 10539 10552 10560 10558 10562 10569 10574 10576 10572 10567 10567 10571 10573 10571 10575 10585 10586 10576 10567 10567 10572 10578 10581 10583 10587 10589 10591 10591 10590 10589 10587 10586 10585 10584 10582 10580 10578 10576 10574 10572 10570 10569 10567 10565 10564 10562 10560 10559 10557 10555 10552 10550 10548 10545 10542 10539 10536 10533 10530 10528 10525 10522 10518 10515 10511 10507 10503 10499
10452 10457 10459 10457 10463 10470 10473 10480 10489 10501 10530 10551 10545 10537 10536 10532 10530 10524 10520 10542 10565 10560 10551 10557 10562 10562 10559 10551 10551 10556 10558 10561 10571 10579 10571 10557 10552 10554 10560 10566 10569 10572 10576 10578 10579 10579 10579 10578 10577 10575 10574 10573 10571 10569 10568 10565 10563 10561 10559 10558 10556 10554 10553 10551 10549 10548 10545 10543 10541 10538 10536 10533 10530 10526 10523 10520 10517 10514 10511 10508 10505 10501 10497 10494 10490 10486
10442 10447 10449 10448 10456 10465 10467 10473 10483 10500 10527 10538 10528 10526 10528 10522 10517 10508 10510 10545 10568 10547 10531 10541 10547 10544 10540 10535 10534 10541 10546 10552 10561 10562 10554 10548 10547 10548 10551 10556 10558 10558 10561 10563 10565 10567 10567 10566 10565 10563 10562 10560 10559 10558 10556 10554 10552 10550 10549 10547 10545 10544 10542 10540 10538 10536 10534 10531 10529 10526 10523 10520 10517 10514 10510 10507 10504 10501 10497 10494 10490 10487 10483 10479 10475 10472
10430 10433 10437 10442 10450 10457 10459 10464 10474 10491 10513 10521 10517 10518 10516 10508 10503 10502 10517 10545 10547 10523 10517 10528 10527 10523 10523 10520 10520 10527 10533 10538 10543 10545 10545 10545 10544 10542 10543 10546 10546 10546 10547 10549 10550 10552 10552 10551 10551 10550 10548 10547 10546 10545 10543 10542 10540 10539 10537 10535 10534 10532 10531 10529 10526 10524 10521 10518 10515 10512 10509 10506 10503 10500 10497 10493 10490 10487 10483 10480 10476 10472 10468 10464 10460 10456
10422 10426 10430 10435 10442 10447 10451 10454 10461 10480 10500 10506 10504 10505 10503 10498 10499 10506 10516 10521 10513 10505 10509 10509 10504 10507 10510 10506 10508 10514 10520 10524 10529 10533 10537 10537 10536 10536 10535 10535 10536 10536 10536 10536 10536 10537 10536 10535 10535 10534 10533 10533 10532 10530 10529 10528 10527 10525 10524 10522 10521 10519 10517 10515 10513 10510 10507 10504 10501 10498 10495 10492 10488 10485 10482 10479 10475 10472 10468 10464 10461 10457 10453 10449 10445 10441
10414 10415 10418 10426 10434 10438 10440 10442 10454 10477 10494 10491 10485 10489 10493 10491 10490 10493 10492 10487 10486 10491 10493 10490 10492 10496 10497 10497 10500 10504 10509 10514 10517 10521 10525 10526 10527 10528 10527 10526 10526 10525 10524 10524 10523 10523 10523 10522 10521 10520 10519 10518 10517 10516 10515 10514 10512 10511 10510 10508 10507 10505 10503 10501 10498 10495 10492 10489 10486 10483 10480 10477 10474 10471 10467 10464 10460 10456 10452 10448 10444 10441 10437 10433 10429 10425
10402 10404 10410 10421 10427 10426 10429 10438 10454 10471 10476 10467 10463 10471 10476 10472 10469 10470 10471 10470 10473 10477 10480 10483 10486 10487 10489 10492 10493 10495 10500 10503 10504 10508 10512 10513 10515 10516 10516 10516 10516 10514 10513 10512 10510 10509 10509 10508 10507 10507 10505 10505 10504 10503 10501 10499 10498 10496 10495 10494 10492 10490 10488 10485 10482 10479 10476 10474 10471 10468 10465 10462 10459 10455 10452 10448 10444 10440 10436 10432 10428 10424 10420 10416 10412 10408
10396 10400 10404 10411 10414 10413 10418 10430 10443 10451 10452 10450 10452 10456 10458 10457 10458 10461 10463 10463 10464 10466 10469 10473 10477 10481 10484 10485 10484 10487 10489 10489 10491 10495 10497 10499 10502 10503 10503 10505 10505 10504 10503 10501 10499 10497 10496 10495 10495 10494 10493 10492 10491 10489 10487 10485 10484 10482 10481 10479 10477 10475 10472 10469 10467 10464 10461 10459 10456 10453 10450 10447 10443 10440 10436 10432 10428 10424 10420 10416 10412 10407 10403 10399 10395 10391
10387 10390 10391 10395 10399 10401 10407 10420 10431 10437 10440 10442 10444 10444 10443 10445 10449 10453 10452 10451 10451 10454 10456 10461 10466 10472 10474 10474 10474 10475 10475 10476 10479 10480 10481 10485 10488 10489 10490 10492 10491 10491 10490 10489 10488 10487 10486 10485 10484 10482 10481 10480 10478 10476 10474 10472 10470 10469 10467 10465 10462 10460 10457 10454 10452 10450 10447 10444 10442 10438 10435 10432 10428 10424 10420 10416 10412 10409 10405 10400 10396 10391 10387 10382 10378 10374
10377 10380 10381 10384 10387 10393 10403 10413 10421 10425 10427 10429 10432 10433 10433 10432 10435 10439 10439 10438 10438 10441 10444 10449 10453 10456 10459 10461 10463 10463 10463 10466 10468 10468 10469 10471 10473 10475 10477 10477 10476 10477 10477 10477 10477 10477 10475 10475 10472 10470 10469 10467 10465 10463 10461 10458 10457 10455 10453 10451 10448 10445 10443 10440 10438 10435 10433 10430 10427 10423 10420 10416 10412 10409 10405 10401 10397 10393 10388 10384 10380 10376 10371 10367 10362 10358
10368 10370 10371 10373 10379 10387 10396 10402 10407 10411 10415 10417 10420 10423 10423 10422 10423 10424 10425 10425 10427 10429 10433 10437 10440 10444 10447 10450 10451 10454 10456 10457 10458 10459 10459 10458 10458 10459 10459 10459 10461 10462 10463 10464 10465 10464 10463 10462 10460 10458 10456 10454 10452 10450 10447 10445 10444 10441 10439 10436 10434 10431 10429 10426 10424 10421 10418 10415 10412 10409 10405 10401 10398 10394 10389 10385 10381 10376 10372 10368 10363 10359 10354 10349 10345 10341
10358 10359 10363 10367 10372 10378 10386 10391 10396 10400 10402 10405 10407 10409 10410 10410 10410 10409 10410 10412 10414 10416 10420 10425 10430 10434 10437 10438 10441 10443 10444 10444 10446 10447 10447 10447 10446 10445 10443 10444 10446 10447 10448 10450 10450 10449 10449 10448 10446 10444 10443 10440 10438 10436 10434 10432 10430 10427 10425 10423 10420 10417 10415 10413 10410 10407 10404 10401 10397 10394 10390 10387 10383 10379 10374 10370 10365 10361 10356 10351 10346 10341 10336 10331 10326 10322
10351 10354 10358 10359 10361 10368 10376 10381 10384 10385 10386 10389 10393 10394 10394 10396 10397 10397 10399 10399 10400 10403 10409 10416 10420 10423 10426 10428 10429 10430 10431 10431 10433 10434 10434 10435 10434 10432 10432 10432 10432 10433 10434 10434 10433 10433 10433 10432 10431 10430 10428 10426 10424 10422 10419 10417 10415 10413 10411 10409 10406 10404 10401 10398 10396 10393 10389 10386 10382 10379 10375 10372 10368 10364 10359 10355 10351 10346 10341 10335 10329 10325 10320 10314 10308 10303
10344 10347 10348 10348 10351 10358 10364 10366 10368 10370 10372 10375 10378 10380 10382 10385 10386 10386 10388 10389 10389 10393 10398 10403 10407 10410 10413 10415 10416 10417 10418 10419 10420 10421 10422 10422 10421 10421 10421 10421 10420 10420 10419 10418 10418 10418 10417 10417 10417 10416 10414 10412 10410 10407 10405 10403 10401 10399 10397 10394 10392 10390 10387 10384 10381 10378 10374 10370 10367 10363 10360 10356 10353 10349 10345 10341 10337 10332 10327 10320 10313 10307 10302 10297 10291 10286